Date String (YYYY-MM-DD hh:mm:ss) UTC,Instrument flags,Ambient pressure (hPa),Sample flow (lpm),Bypass flow (lpm),Sample temperature (°C),Ambient temperature (°C),ASC tube jacket temperature (°C),LED temperature (°C),Box temperature (°C),Sample RH (%),Span deviation,Mass concentration (μg/m³),Mass concentration (μg/m³),Mass concentration (μg/m³)
DateTimeUTC,F1_M11,P_M11,Q1_M11,Q2_M11,T1_M11,T2_M11,T3_M11,T4_M11,T5_M11,U1_M11,ZSPAN_M11,X0_M11,X2_M11,X1_M11
2021-12-14 19:00:00,,0819.0,4.99,0.00,26.1,25.3,00.0,34.9,27.9,07.9,0000.1,0024.88,0007.34,0005.54
2021-12-14 19:01:00,,0818.9,4.99,0.00,26.1,25.3,00.0,34.9,27.9,07.9,0000.3,0024.93,0007.44,0005.56
2021-12-14 19:02:00,,0819.0,5.00,0.00,26.1,25.3,00.0,34.9,28.0,07.9,0000.3,0026.96,0007.54,0005.59
2021-12-14 19:03:00,,0819.0,5.01,0.00,26.1,25.3,00.0,34.9,28.0,07.9,0000.2,0026.61,0007.62,0005.61
2021-12-14 19:04:00,,0818.9,5.00,0.00,26.1,25.4,00.0,34.9,28.0,07.9,-000.1,0024.72,0007.63,0005.63
2021-12-14 19:05:00,,0818.9,4.99,0.00,26.1,25.4,00.0,35.0,28.0,07.9,0000.4,0023.47,0007.62,0005.65
2021-12-14 19:06:00,,0818.9,5.00,0.00,26.1,25.4,00.0,35.0,28.0,07.9,0001.0,0023.40,0007.66,0005.68
2021-12-14 19:07:00,,0818.9,5.01,0.00,26.2,25.4,00.0,35.0,28.0,07.9,0001.0,0026.76,0007.75,0005.70
2021-12-14 19:08:00,,0819.0,5.01,0.00,26.2,25.4,00.0,35.0,28.0,07.9,0002.4,0026.28,0007.76,0005.70
2021-12-14 19:09:00,,0818.9,4.99,0.00,26.2,25.4,00.0,35.0,28.0,07.8,0001.4,0025.85,0007.69,0005.67
2021-12-14 19:10:00,,0818.9,5.01,0.00,26.2,25.4,00.0,35.0,28.1,07.8,0001.8,0025.75,0007.68,0005.66
2021-12-14 19:11:00,,0818.9,4.99,0.00,26.2,25.5,00.0,35.1,28.1,07.8,0000.8,0026.57,0007.66,0005.66
2021-12-14 19:12:00,,0819.0,5.00,0.00,26.2,25.5,00.0,35.1,28.1,07.8,0001.3,0028.10,0007.64,0005.66
2021-12-14 19:13:00,,0818.9,5.00,0.00,26.2,25.5,00.0,35.1,28.1,07.8,0002.6,0027.63,0007.72,0005.66
2021-12-14 19:14:00,,0818.8,5.01,0.00,26.3,25.5,00.0,35.1,28.1,07.8,0002.3,0028.19,0007.71,0005.67
2021-12-14 19:15:00,,0818.8,5.00,0.00,26.3,25.5,00.0,35.1,28.1,07.8,0002.9,0029.27,0007.72,0005.68
2021-12-14 19:16:00,,0818.8,5.00,0.00,26.3,25.5,00.0,35.1,28.2,07.8,0003.2,0029.96,0007.77,0005.69
2021-12-14 19:17:00,,0818.7,5.01,0.00,26.3,25.5,00.0,35.1,28.2,07.8,0003.0,0030.13,0007.82,0005.68
2021-12-14 19:18:00,,0818.7,5.00,0.00,26.3,25.5,00.0,35.2,28.2,07.8,0002.3,0027.09,0007.74,0005.68
2021-12-14 19:19:00,,0818.7,4.98,0.00,26.3,25.6,00.0,35.2,28.2,07.8,0002.3,0027.15,0007.74,0005.69
2021-12-14 19:20:00,,0818.7,5.01,0.00,26.3,25.6,00.0,35.2,28.2,07.8,0004.2,0028.30,0007.86,0005.72
2021-12-14 19:21:00,,0818.6,4.99,0.00,26.3,25.6,00.0,35.2,28.2,07.8,0006.6,0027.88,0007.85,0005.74
2021-12-14 19:22:00,,0818.6,5.01,0.00,26.4,25.6,00.0,35.2,28.2,07.8,0006.9,0026.54,0007.87,0005.74
2021-12-14 19:23:00,,0818.5,4.99,0.00,26.4,25.6,00.0,35.2,28.2,07.8,0007.1,0024.96,0007.87,0005.74
2021-12-14 19:24:00,,0818.5,5.01,0.00,26.4,25.6,00.0,35.2,28.2,07.8,0007.8,0024.10,0007.80,0005.75
2021-12-14 19:25:00,,0818.5,5.00,0.00,26.4,25.6,00.0,35.2,28.2,07.8,0007.7,0023.96,0007.78,0005.74
2021-12-14 19:26:00,,0818.5,4.99,0.00,26.4,25.6,00.0,35.3,28.2,07.8,0008.9,0024.41,0007.83,0005.74
2021-12-14 19:27:00,,0818.4,5.01,0.00,26.4,25.6,00.0,35.3,28.2,07.8,0011.0,0023.65,0007.80,0005.75
2021-12-14 19:28:00,,0818.4,4.99,0.00,26.4,25.6,00.0,35.3,28.3,07.8,0009.4,0024.54,0007.83,0005.75
2021-12-14 19:29:00,,0818.4,5.01,0.00,26.4,25.7,00.0,35.3,28.3,07.8,0007.6,0025.50,0007.85,0005.76
2021-12-14 19:30:00,,0818.3,4.99,0.00,26.4,25.7,00.0,35.3,28.3,07.8,0007.9,0025.92,0007.81,0005.75
2021-12-14 19:31:00,,0818.4,5.01,0.00,26.4,25.7,00.0,35.3,28.3,07.8,0010.3,0026.23,0007.74,0005.75
2021-12-14 19:32:00,,0818.4,5.00,0.00,26.5,25.7,00.0,35.3,28.3,07.9,0006.4,0027.24,0007.74,0005.74
2021-12-14 19:33:00,,0818.2,5.01,0.00,26.5,25.7,00.0,35.3,28.3,07.9,0013.0,0026.44,0007.69,0005.73
2021-12-14 19:34:00,,0818.1,5.00,0.00,26.5,25.7,00.0,35.3,28.3,07.8,0011.7,0026.69,0007.74,0005.73
2021-12-14 19:35:00,,0818.1,5.00,0.00,26.5,25.7,00.0,35.3,28.3,07.8,0002.6,0026.82,0007.70,0005.72
2021-12-14 19:36:00,,0818.2,5.00,0.00,26.5,25.7,00.0,35.4,28.3,07.7,-001.3,0026.23,0007.76,0005.72
2021-12-14 19:37:00,,0818.2,5.00,0.00,26.5,25.7,00.0,35.4,28.3,07.8,0000.1,0026.26,0007.78,0005.73
2021-12-14 19:38:00,,0818.1,5.01,0.00,26.5,25.7,00.0,35.4,28.3,07.8,0002.0,0026.45,0007.79,0005.73
2021-12-14 19:39:00,,0818.0,5.00,0.00,26.5,25.7,00.0,35.4,28.4,07.8,0002.2,0025.49,0007.73,0005.73
2021-12-14 19:40:00,,0818.1,4.99,0.00,26.5,25.8,00.0,35.4,28.4,07.8,0002.7,0024.52,0007.70,0005.72
2021-12-14 19:41:00,,0818.0,5.01,0.00,26.5,25.8,00.0,35.4,28.4,07.8,0001.4,0024.38,0007.72,0005.72
2021-12-14 19:42:00,,0818.0,4.99,0.00,26.6,25.8,00.0,35.4,28.4,07.8,0001.3,0024.16,0007.70,0005.71
2021-12-14 19:43:00,,0818.0,5.02,0.00,26.6,25.8,00.0,35.4,28.4,07.8,-000.2,0023.08,0007.64,0005.71
2021-12-14 19:44:00,,0818.0,4.99,0.00,26.6,25.8,00.0,35.4,28.4,07.8,0001.9,0024.22,0007.67,0005.71
2021-12-14 19:45:00,,0818.0,5.01,0.00,26.6,25.8,00.0,35.5,28.4,07.8,0001.3,0024.53,0007.58,0005.69
2021-12-14 19:46:00,,0817.9,5.00,0.00,26.6,25.8,00.0,35.5,28.4,07.8,0002.1,0026.27,0007.55,0005.67
2021-12-14 19:47:00,,0817.9,4.99,0.00,26.6,25.8,00.0,35.5,28.4,07.8,-000.0,0027.66,0007.53,0005.64
2021-12-14 19:48:00,,0817.9,5.02,0.00,26.6,25.9,00.0,35.5,28.4,07.7,-001.6,0028.87,0007.47,0005.60
2021-12-14 19:49:00,,0817.8,4.98,0.00,26.6,25.9,00.0,35.5,28.5,07.7,-002.3,0029.94,0007.41,0005.56
2021-12-14 19:50:00,,0817.8,5.01,0.00,26.7,25.9,00.0,35.5,28.5,07.7,-002.6,0030.19,0007.32,0005.52
2021-12-14 19:51:00,,0817.8,4.99,0.00,26.7,25.9,00.0,35.5,28.5,07.6,-002.3,0030.39,0007.33,0005.46
2021-12-14 19:52:00,,0817.7,5.00,0.00,26.7,25.9,00.0,35.5,28.5,07.7,-001.6,0029.56,0007.24,0005.37
2021-12-14 19:53:00,,0817.8,4.98,0.00,26.7,25.9,00.0,35.6,28.5,07.7,-001.3,0028.17,0007.18,0005.29
2021-12-14 19:54:00,,0817.7,5.02,0.00,26.7,25.9,00.0,35.6,28.6,07.7,-000.1,0028.00,0007.20,0005.25
2021-12-14 19:55:00,,0817.7,4.98,0.00,26.7,26.0,00.0,35.6,28.6,07.7,0000.7,0026.78,0007.15,0005.21
2021-12-14 19:56:00,,0817.6,5.01,0.00,26.7,26.0,00.0,35.6,28.6,07.6,0001.8,0025.38,0007.00,0005.13
2021-12-14 19:57:00,,0817.6,4.99,0.00,26.8,26.0,00.0,35.6,28.6,07.7,0001.3,0024.04,0007.01,0005.06
2021-12-14 19:58:00,,0817.6,4.99,0.00,26.8,26.1,00.0,35.6,28.6,07.6,0002.0,0022.56,0006.98,0005.02
2021-12-14 19:59:00,,0817.5,5.01,0.00,26.8,26.1,00.0,35.6,28.6,07.6,0002.8,0020.88,0006.93,0004.98
